Location: *
(44.1392°N, 4.8079°E)
Time: 15:00:04
(UTC+00:00)

NOSS 5 (C) - Pass Details

Date: 26 October 2021
Orbit: 381 x 1717 km, 63.3° (Epoch: 29 November)

Event Time Altitude Azimuth Distance (km) Brightness Sun altitude
Rises 18:03:01 0° 331° (NNW) 2,269 8.3 -15.6°
Reaches altitude 10° 18:05:04 10° 342° (NNW) 1,439 7.1 -16.0°
Enters shadow 18:07:40 31° 40° (NE) 775 5.2 -16.5°
